7 * 24
多渠道服务支持
STARLINK-37538(NORAD编号68844)是SpaceX星链(Starlink)星座中的一颗低轨互联网通信卫星,隶属于全球最大的现役低轨卫星互联网星座系统。星链星座由SpaceX旗下Starlink公司运营,核心使命是为全球偏远、网络覆盖不足地区提供高速低延迟宽带服务,STARLINK-37538是星座扩容过程中的批量发射组网卫星之一,运行于近地轨道,参与构建全球覆盖的卫星互联网通信网络,助力实现天地一体化网络连接,目前该卫星随星座整体持续提供全球范围的卫星互联网接入服务。
美国
(US)
| 数据来源 | 国际轨道数据 |
| 星历时间: | 2026-05-24T12:00:02+0800 1天前 查看轨道信息 |
| 半长轴: | 6797.218km |
| 偏心率: | 0.0001597 |
| 轨道倾角: | 97.285° |
| 近地点辐角 | 90.767° |
| 升交点赤经 | 158.842° |
| 平近点角 | 136.904° |
| 近地点: | 417.995km |
| 远地点: | 420.167km |
| 周期: | 92.952分钟 |
| 每日圈数: | 15.491947 |